Regional Weather Roundup
Issued by NWS Charleston, SC

Current Version | Previous Version | Text Only | Print | Product List | Glossary Off
Versions: 1 2 3 4 5 6 7 8 9 10 11 12 13 14 15 16 17 18 19 20 21 22 23 24 25 26 27 28 29 30 31 32 33 34 35 36 37 38 39 40 41 42 43 44 45 46 47 48 49 50

000
ASUS42 KCHS 221810
RWRCHS

REGIONAL WEATHER ROUNDUP
NATIONAL WEATHER SERVICE CHARLESTON SC
100 PM EST MON DEC 22 2014

NOTE: "FAIR" INDICATES FEW OR NO CLOUDS BELOW 12,000 FEET WITH NO
SIGNIFICANT WEATHER AND/OR OBSTRUCTIONS TO VISIBILITY.

NOT ALL STATIONS ARE QUALITY CONTROLLED BY THE NATIONAL
WEATHER SERVICE. USE DATA WITH CAUTION...ESPECIALLY
DEWPOINT OBSERVATIONS.

SCZ027-030-031-034>040-042>050-221900-
...SOUTHEAST SOUTH CAROLINA...

CITY           SKY/WX    TMP DP  RH WIND       PRES   REMARKS
N CHARLESTON   LGT RAIN  47  46  97 N5        30.01F
6HR MIN TEMP:  45; 6HR MAX TEMP:  48; 6HR PCP:  0.06;

WATERFRONT PRK   N/A     48 N/A N/A N8          N/A
MOUNT PLEASANT CLOUDY    48  48 100 CALM      30.00F FOG
PINOPOLIS      NOT AVBL
MONCKS CORNER  RAIN      46  45  93 NE3       30.01F
SUMMERVILLE    LGT RAIN  46  46 100 NE5       30.01F
BEAUFORT MCAS  LGT RAIN  48  46  93 N7        30.00S
6HR MIN TEMP:  47; 6HR MAX TEMP:  49; 6HR PCP:  0.07;

BEAUFORT ARPT  LGT RAIN  48  48 100 N7        29.98F
HILTON HEAD IS RAIN      50  50 100 N6        29.98F
WALTERBORO     RAIN      46 N/A N/A N5        30.02S
ALLENDALE      LGT RAIN  46  46 100 N6G15     30.02S

...SOUTHERN MIDLANDS AND PEE DEE...

CITY           SKY/WX    TMP DP  RH WIND       PRES   REMARKS
GEORGETOWN     NOT AVBL
KINGSTREE      NOT AVBL
ORANGEBURG     LGT RAIN  45  42  89 NE3       30.03S FOG
6HR MIN TEMP:  44; 6HR MAX TEMP:  45; 6HR PCP:  0.25;

BARNWELL       CLOUDY    46  45  93 E8        30.01F
AIKEN          RAIN      45  45 100 NE5G17    30.03F
MANNING        CLOUDY    45 N/A N/A NW9       30.04S
COLUMBIA       LGT RAIN  45  43  93 NE8       30.04F FOG
6HR MIN TEMP:  45; 6HR MAX TEMP:  46; 6HR PCP: TRACE;

SUMTER         NOT AVBL
FLORENCE       CLOUDY    43  41  93 N10       30.04F
6HR MIN TEMP:  42; 6HR MAX TEMP:  44; 6HR PCP: TRACE;

MYRTLE BEACH   CLOUDY    46  43  87 N7        30.04F FOG
N MYRTLE BEACH CLOUDY    47  44  90 N5        30.01F
6HR MIN TEMP:  44; 6HR MAX TEMP:  47; 6HR PCP: TRACE;


$$

GAZ063-065-086>088-099>101-113>116-118-119-134>141-150-221900-
...SOUTHEAST GEORGIA...

CITY           SKY/WX    TMP DP  RH WIND       PRES   REMARKS
SAVANNAH ARPT  LGT RAIN  50  48  93 N7        30.00F VSB 1
6HR MIN TEMP:  48; 6HR MAX TEMP:  50; 6HR PCP:  0.10;

HUNTER AAF     NOT AVBL
FORT STEWART   NOT AVBL
STATESBORO     RAIN      47  47 100 CALM      29.99F
SYLVANIA       RAIN      46  46 100 NE3       30.01F
CLAXTON        TSTM      48  48 100 E3        29.97F

...CSRA...CENTRAL AND FAR SOUTHEAST GEORGIA...

CITY           SKY/WX    TMP DP  RH WIND       PRES   REMARKS
THOMSON        CLOUDY    47  47 100 NE3       30.05F
AUGUSTA-BUSH   LGT RAIN  46  45  96 N8        30.01F
6HR MIN TEMP:  45; 6HR MAX TEMP:  47; 6HR PCP:  0.37;

AUGUSTA-DANIEL HVY RAIN  47  47 100 NE9       30.01F FOG
SWAINSBORO     CLOUDY   N/A N/A N/A E6        29.98F
VIDALIA        RAIN      48  48 100 N3        29.98F
EASTMAN        CLOUDY    51  51 100 E7        29.98F
HAZLEHURST     CLOUDY    52  52 100 N5        29.94F
ALMA           LGT RAIN  50  49  96 VRB3      29.97F FOG
6HR MIN TEMP:  48; 6HR MAX TEMP:  51; 6HR PCP:  0.01;

WAYCROSS       HVY RAIN  55  55 100 NE6       29.97F
JESUP          RAIN      54  54 100 CALM      29.99S
BAXLEY         LGT RAIN  52  52 100 E3        29.96F
BRUNSWICK      CLOUDY    54  54 100 CALM      29.98F VSB 1/2
SAINT SIMONS   FOG       56  55  97 E7        29.96F VSB 1/2
6HR MIN TEMP:  55; 6HR MAX TEMP:  57;


$$

SCZ027-028-034-036>038-045-046-048>050-GAZ119-141-221900-
...LAKE AND SUPPLEMENTAL COASTAL OBSERVATIONS...

STATION/POSITION TIME  TEMP    WIND        PRES    WAVE   SWELL
                       AIR SEA DIR/SP/G            HT/PER HT/PER/DIR
                 (UTC) (F)     (DEG/KT/KT) (MB)    (FT/S) (FT/S/D)
UPR LAKE MARION  NOT AVBL
WINYAH BAY       1700   45     340/  4     1017.0S
LAKE MURRAY      1700   44      40/  4/  6 1016.9F
ACE BASIN NERRS  1700   47      30/  2     1017.0S
FORT PULASKI     1800   51 55   40/  9/ 12 1015.2F
SAPELO ISLAND    NOT AVBL

$$

ANZ835-935-AMZ111-154-330-350-352-354-370-450-454-472-221900-
...C-MAN AND BUOY OBSERVATIONS...

STATION/POSITION TIME  TEMP    WIND        PRES    WAVE   SWELL
                       AIR SEA DIR/SP/G            HT/PER HT/PER/DIR
                 (UTC) (F)     (DEG/KT/KT) (MB)    (FT/S) (FT/S/D)
BUOY 41004       1800   60 73   10/ 12/ 14 1015.2F   5/ 8   3/ 8
BUOY 41008       1800   57 59   50/ 12/ 14 1014.6F   4/10   2/ 60/10
FOLLY BEACH CMAN 1700   47      10/  8/  9 1017.1F
CAPERS NEARSHORE NOT AVBL
FRIPP NEARSHORE  NOT AVBL


STATION/POSITION TIME  TEMP    WIND        PRES    WAVE   SWELL
                       AIR SEA DIR/SP/G            HT/PER HT/PER/DIR
                 (UTC) (F)     (DEG/KT/KT) (MB)    (FT/S) (FT/S/D)
5E ST. MARYS GA  1800      61                N/A     3/10
FRYING PAN BUOY  1800   54 69   10/ 12/ 16 1016.2F   5/ 8   3/ 90/ 8
BUOY 41025       1800   70                 1013.6F  10/ 8
CAPE LOOKOUT NC  1700   52     340/ 10/ 11 1015.3F
BUOY 41002       1717   71 72  210/ 10/ 10 1016.4F   5/ 6   5/ 70/ 6
BUOY 41010       1800   76 77  160/ 12/ 14 1015.7F   3/ 7   3/ 50/ 7
ST AUGUSTINE FL  1800   66     170/ 12/ 13 1014.2F


$$


USA.gov is the U.S. government's official web portal to all federal, state and local government web resources and services.